Regional Weather Roundup
Issued by NWS

Home | Current Version | Previous Version | Graphics & Text | Print | Product List | Glossary On
Versions: 1 2 3 4 5 6 7 8 9 10 11 12 13 14 15 16 17 18 19 20 21 22 23 24 25 26 27 28 29 30 31 32 33 34 35 36 37 38 39 40 41 42 43 44 45 46 47 48 49 50
000
ASUS43 KLSX 300359
RWRMO

WEATHER SUMMARY FOR MISSOURI
NATIONAL WEATHER SERVICE SPRINGFIELD MO
1100 PM CDT TUE JUL 29 2014

NOTE: "FAIR" INDICATES FEW OR NO CLOUDS BELOW 12,000 FEET WITH NO
       SIGNIFICANT WEATHER AND/OR OBSTRUCTIONS TO VISIBILITY.
       CURRENT SKY AND/OR WEATHER CONDITIONS ARE NOT AVAILABLE FOR
       CHILLICOTHE AND FARMINGTON.

MOZ001>031-035>038-043-044-053-054-300500-
...NORTHERN AND WESTERN MISSOURI...

CITY           SKY/WX    TMP DP  RH WIND       PRES   REMARKS
KANSAS CTY INT PTCLDY    70  59  68 NE5       30.11R
KANSAS C DTWN  CLEAR     74  58  57 NE3       30.10R
LEE`S SUMMIT   CLEAR     72  60  66 E3        30.12R
ST JOSEPH      PTCLDY    64  60  87 N7        30.12R
CHILLICOTHE      N/A     64  59  83 CALM      30.12R
KIRKSVILLE     CLEAR     59  57  93 CALM      30.11R

$$
MOZ066>068-077>081-088>096-101>105-300500-
...SOUTHWEST MISSOURI...

CITY           SKY/WX    TMP DP  RH WIND       PRES   REMARKS
SPRINGFIELD    MOCLDY    69  61  75 W3        30.10S HAZE
JOPLIN         PTCLDY    67  61  81 CALM      30.10S

$$
MOZ032>034-039>042-045>050-055>058-069>072-300500-
...CENTRAL MISSOURI...

CITY           SKY/WX    TMP DP  RH WIND       PRES   REMARKS
COLUMBIA       CLEAR     69  58  67 SE3       30.10S
JEFFERSON CITY PTCLDY    64  57  78 CALM      30.09R
ROLLA          MOCLDY    67  54  63 E3        30.10R
SEDALIA        PTCLDY    66  59  78 CALM      30.11R
OSAGE BEACH    PTCLDY    66  55  68 CALM      30.10S

$$
MOZ051-052-059>065-300500-
...EAST CENTRAL MISSOURI...

CITY           SKY/WX    TMP DP  RH WIND       PRES   REMARKS
ST LOUIS INTL  CLEAR     70  56  61 CALM      30.10R
SPIRIT OF STL  CLEAR     62  58  86 CALM      30.09R
ST CHARLES     CLEAR     63  58  83 CALM      30.08R

$$
MOZ072>076-082>087-097>100-106>115-300500-
...SOUTH CENTRAL AND SOUTHEAST MISSOURI...

CITY           SKY/WX    TMP DP  RH WIND       PRES   REMARKS
CAPE GIRARDEAU CLEAR     63  58  83 CALM      30.10R
FARMINGTON     PTCLDY    63  55  77 CALM      30.13S
POPLAR BLUFF   CLEAR     63  58  83 CALM      30.09R
WEST PLAINS    PTCLDY    65  58  78 SE3       30.12S

$$



USA.gov is the U.S. government's official web portal to all federal, state and local government web resources and services.